North Myrtle Beach, SC

11:49 PM EDT on March 28, 2017 (GMT -0400)
Grand Strand

Weather History for KCRE - June, 2013

Change the Weather History Date:

Saturday, June 8, 2013

  Actual Average Record
Temperature  
Mean Temperature 81 °F 75 °F  
Max Temperature 86 °F 83 °F 99 °F (1952)
Min Temperature 76 °F 68 °F 52 °F (1998)
Degree Days  
Heating Degree Days 0 0  
Month to date heating degree days 0 0  
Since 1 June heating degree days 0 0  
Since 1 July heating degree days 2416 2447  
Cooling Degree Days 16 10  
Month to date cooling degree days 94 76  
Year to date cooling degree days 274 288  
Since 1 June cooling degree days 94 76  
Growing Degree Days 30 (Base 50)    
Moisture  
Dew Point 74 °F    
Average Humidity 76    
Maximum Humidity 94    
Minimum Humidity 57    
Precipitation  
Precipitation 0.00 in 0.15 in 1.77 in (2006)
Month to date precipitation 4.28 1.16  
Year to date precipitation 21.72 18.56  
Sea Level Pressure  
Sea Level Pressure 29.97 in    
Wind  
Wind Speed 14 mph (SSW)    
Max Wind Speed 20 mph    
Max Gust Speed 25 mph    
Visibility 10 miles    
Events      
T = Trace of Precipitation, MM = Missing Value Source: NWS Daily Summary

Daily Weather History Graph

Daily Weather History Graph

Search for Another Location

Airport or City:

Trip Planner

Search our weather history database for the weather conditions in past years. The results will help you decide how hot, cold, wet, or windy it might be!

Date:

Astronomy

Jun. 08, 2013 Rise Set
Actual Time 6:03 AM EDT 8:24 PM EDT
Civil Twilight 5:34 AM EDT 8:53 PM EDT
Nautical Twilight 4:59 AM EDT 9:28 PM EDT
Astronomical Twilight 4:20 AM EDT 10:07 PM EDT
Moon 6:07 AM EDT (6/8) 8:28 PM EDT (6/8)
Length of Visible Light 15h 18m
Length of Day
14h 20m
New Moon, 0% of the Moon is Illuminated
Jun 8
New Moon
Jun 16
First Quarter
Jun 23
Full
Jun 30
Last Quarter
Jul 8
New

Hourly Weather History & Observations

Time (EDT) Temp. Heat Index Dew Point Humidity Pressure Visibility Wind Dir Wind Speed Gust Speed Precip Events Conditions
12:53 AM 77.0 °F - 73.0 °F 88% 29.88 in 10.0 mi SSW 16.1 mph 23.0 mph N/A   Clear
1:53 AM 75.9 °F - 73.9 °F 94% 29.87 in 10.0 mi SSW 16.1 mph - N/A   Clear
2:53 AM 77.0 °F - 73.9 °F 90% 29.88 in 10.0 mi SSW 18.4 mph 24.2 mph N/A   Mostly Cloudy
3:53 AM 77.0 °F - 73.9 °F 90% 29.89 in 10.0 mi SSW 12.7 mph - N/A   Scattered Clouds
4:53 AM 75.9 °F - 73.9 °F 94% 29.90 in 10.0 mi SW 11.5 mph - N/A   Mostly Cloudy
5:12 AM 77.0 °F - 73.4 °F 89% 29.90 in 10.0 mi SW 15.0 mph - N/A   Overcast
5:23 AM 77.0 °F - 73.4 °F 89% 29.90 in 10.0 mi SSW 13.8 mph - N/A   Mostly Cloudy
5:31 AM 77.0 °F - 73.4 °F 89% 29.90 in 10.0 mi SSW 13.8 mph - N/A   Mostly Cloudy
5:38 AM 77.0 °F - 73.4 °F 89% 29.90 in 10.0 mi SSW 12.7 mph - N/A   Mostly Cloudy
5:53 AM 77.0 °F - 73.9 °F 90% 29.91 in 10.0 mi SSW 12.7 mph 20.7 mph N/A   Mostly Cloudy
6:13 AM 77.0 °F - 73.4 °F 89% 29.91 in 10.0 mi SSW 15.0 mph - N/A   Mostly Cloudy
6:20 AM 77.0 °F - 73.4 °F 89% 29.91 in 10.0 mi SSW 12.7 mph - N/A   Partly Cloudy
6:53 AM 77.0 °F - 75.0 °F 94% 29.92 in 10.0 mi SSW 13.8 mph - N/A   Clear
7:06 AM 77.0 °F - 75.2 °F 94% 29.92 in 10.0 mi SSW 16.1 mph 20.7 mph N/A   Partly Cloudy
7:36 AM 77.0 °F - 75.2 °F 94% 29.93 in 10.0 mi SSW 12.7 mph - N/A   Mostly Cloudy
7:53 AM 77.0 °F - 73.9 °F 90% 29.94 in 10.0 mi SSW 16.1 mph - N/A   Overcast
8:42 AM 78.8 °F - 75.2 °F 89% 29.95 in 10.0 mi SW 12.7 mph - N/A   Mostly Cloudy
8:53 AM 79.0 °F - 73.9 °F 84% 29.96 in 10.0 mi SW 13.8 mph - N/A   Mostly Cloudy
9:53 AM 81.0 °F 85.2 °F 72.0 °F 74% 29.98 in 10.0 mi SSW 15.0 mph 21.9 mph N/A   Mostly Cloudy
10:53 AM 82.0 °F 86.3 °F 71.1 °F 69% 29.99 in 10.0 mi SSW 17.3 mph - N/A   Mostly Cloudy
11:53 AM 82.9 °F 87.5 °F 71.1 °F 67% 30.00 in 10.0 mi SSW 13.8 mph - N/A   Mostly Cloudy
12:53 PM 86.0 °F 90.1 °F 69.1 °F 57% 30.00 in 10.0 mi WSW 15.0 mph 20.7 mph N/A   Partly Cloudy
1:53 PM 82.9 °F 89.4 °F 73.9 °F 74% 30.00 in 10.0 mi South 16.1 mph - N/A   Partly Cloudy
2:53 PM 82.0 °F 88.6 °F 75.0 °F 79% 30.01 in 10.0 mi SSW 17.3 mph 23.0 mph N/A   Scattered Clouds
3:53 PM 82.0 °F 88.6 °F 75.0 °F 79% 30.01 in 10.0 mi SW 17.3 mph - N/A   Clear
4:53 PM 81.0 °F 86.2 °F 73.9 °F 79% 30.01 in 10.0 mi SSW 15.0 mph 23.0 mph N/A   Clear
5:53 PM 80.1 °F 84.5 °F 73.9 °F 81% 30.01 in 10.0 mi SSW 12.7 mph - N/A   Clear
6:53 PM 79.0 °F - 75.0 °F 88% 30.03 in 10.0 mi SSW 11.5 mph - N/A   Clear
7:53 PM 78.1 °F - 75.0 °F 90% 30.05 in 10.0 mi SSW 12.7 mph - N/A   Clear
8:53 PM 78.1 °F - 75.0 °F 90% 30.07 in 10.0 mi SSW 12.7 mph - N/A   Clear
9:53 PM 78.1 °F - 73.9 °F 87% 30.09 in 10.0 mi SSW 11.5 mph - N/A   Clear
10:53 PM 77.0 °F - 75.0 °F 94% 30.11 in 10.0 mi SSW 9.2 mph - N/A   Clear
11:01 PM 77.0 °F - 75.2 °F 94% 30.11 in 10.0 mi SSW 11.5 mph - N/A   Partly Cloudy
11:53 PM 77.0 °F - 75.0 °F 94% 30.11 in 10.0 mi SSW 10.4 mph - N/A   Clear